Location: Gro�wechsungen
(51.4926°N, 10.6901°E)
Time: 11:01:19
(UTC+00:00)

COSMOS 2406 - Pass Details

Date: 18 September 2020
Orbit: 844 x 863 km, 71.0° (Epoch: 25 October)

Event Time Altitude Azimuth Distance (km) Brightness Sun altitude
Rises 19:02:03 0° 331° (NNW) 3,416 7.2 -15.6°
Reaches altitude 10° 19:04:45 10° 340° (NNW) 2,477 6.2 -16.0°
Maximum altitude 19:09:53 34° 45° (NE) 1,373 4.1 -16.8°
Enters shadow 19:12:17 24° 88° (E) 1,677 4.2 -17.1°
